Hourly Data Report for December 08, 2018

TORONTO CITY
ONTARIO
Current Station Operator: ECCC - MSC

43°40'00.000" N
79°24'00.000" W
112.50 m
6158355
71508
XTO

Download Data

Hourly Data (December 2018)
Hourly Data Report for December 8, 2018
TIME
LST
Temp Definition
°C
Dew Point Definition
°C
Rel Hum Definition
%
Precip. Amount Definition
mm

Wind Dir Definition
10's deg

Wind Spd Definition
km/h
Visibility Definition
km
Stn Press Definition
kPa
Hmdx Definition


Wind Chill Definition


Weather Definition


00:00 -2.6 -10.0 56 0.0 LegendMM LegendMM   101.46     LegendNANA
01:00 -2.4 -8.6 62 0.0 LegendMM LegendMM   101.41     LegendNANA
02:00 -2.6 -6.3 76 0.0 LegendMM LegendMM   101.43     LegendNANA
03:00 -3.8 -5.9 86 0.2 LegendMM LegendMM   101.47     LegendNANA
04:00 -3.4 -5.0 88 0.3 LegendMM LegendMM   101.46     LegendNANA
05:00 -3.1 -6.3 79 0.0 LegendMM LegendMM   101.41     LegendNANA
06:00 -2.9 -7.6 70 0.0 LegendMM LegendMM   101.51     LegendNANA
07:00 -3.5 -8.8 67 0.0 LegendMM LegendMM   101.52     LegendNANA
08:00 -4.2 -8.6 72 0.0 LegendMM LegendMM   101.59     LegendNANA
09:00 -3.0 -7.3 72 0.0 LegendMM LegendMM   101.68     LegendNANA
10:00 -1.2 -6.6 66 0.0 LegendMM LegendMM   101.79     LegendNANA
11:00 -0.8 -7.8 59 0.0 LegendMM LegendMM   101.81     LegendNANA
12:00 -0.5 -9.2 51 0.0 LegendMM LegendMM   101.78     LegendNANA
13:00 -0.2 -10.2 47 0.0 LegendMM LegendMM   101.73     LegendNANA
14:00 -0.2 -9.2 51 0.2 LegendMM LegendMM   101.67     LegendNANA
15:00 0.0 -8.3 54 0.0 LegendMM LegendMM   101.67     LegendNANA
16:00 0.0 -8.5 53 0.0 LegendMM LegendMM   101.76     LegendNANA
17:00 -0.2 -8.7 53 0.0 LegendMM LegendMM   101.80     LegendNANA
18:00 -0.5 -8.2 56 0.0 LegendMM LegendMM   101.86     LegendNANA
19:00 -1.0 -8.1 58 0.0 LegendMM LegendMM   101.90     LegendNANA
20:00 -1.6 -8.7 58 0.0 LegendMM LegendMM   101.90     LegendNANA
21:00 -2.2 -8.9 60 0.0 LegendMM LegendMM   101.92     LegendNANA
22:00 -1.3 -8.2 60 0.0 LegendMM LegendMM   101.92     LegendNANA
23:00 -1.2 -7.9 60 0.0 LegendMM LegendMM   101.88     LegendNANA

Notes on Data Quality.

Legend

  • E = Estimated
  • M = Missing
  • NA = Not Available*
  • [empty] = Indicates an unobserved value
Date modified: